Location: Old Broadwell Mill Observatory
(33.8015°N, 85.8137°W)
Time: 18:58:42
(UTC-05:00)

Amateur Radio Satellites - All Passes

Search period start: 24 March 2017 18:28
Search period end: 25 March 2017 18:28
Location: Old Broadwell Mill Observatory, 33.8015°N, 85.8137°W

Satellite Date Start Highest point End Downlink Frequencies (MHz)
Time Altitude Azimuth
HO-68 24 Mar 18:28:50 18:34:48 30° 65° (ENE) 18:40:46 435.675
CUTE 1.7 + AOD 2 24 Mar 18:32:54 18:35:15 15° 68° (ENE) 18:37:35 437.475
XW-2D 24 Mar 18:46:34 18:49:57 30° 262° (W) 18:53:20 145.860 - 145.880
XW-2B 24 Mar 18:52:37 18:55:51 26° 263° (W) 18:59:06 145.730 - 145.750
CUTE-I 24 Mar 18:54:11 18:59:14 42° 261° (W) 19:04:21 437.470
NUDT-PHONESAT 24 Mar 18:54:13 18:57:33 30° 262° (W) 19:00:55 437.300
KAITUO 1B 24 Mar 18:58:48 19:02:01 27° 263° (W) 19:05:14 145.475/437.950
M-CUBED/EXP-1 PRIME 24 Mar 19:01:13 19:05:52 72° 106° (ESE) 19:10:31 437.505
XW-2C 24 Mar 19:03:11 19:05:59 19° 264° (W) 19:08:48 145.795 - 145.815
CUBEBUG 2 24 Mar 19:26:06 19:30:14 30° 71° (ENE) 19:34:22 437.445
DOVE 4 24 Mar 19:26:30 19:28:07 12° 270° (W) 19:29:47 437.250
PCSat 24 Mar 19:27:48 19:33:06 51° 61° (ENE) 19:38:21 145.827
STRAND 1 24 Mar 19:35:41 19:40:26 38° 99° (E) 19:45:07 437.568
XW-2A 24 Mar 19:40:44 19:44:04 48° 260° (W) 19:47:26 145.665 - 145.685
RS-15 24 Mar 19:42:26 19:50:04 18° 26° (NNE) 19:57:32 29.354- 29.394
Oscar 11 24 Mar 19:43:13 19:44:09 11° 66° (ENE) 19:45:06 .
ZACube-1 24 Mar 19:44:31 19:47:20 16° 68° (ENE) 19:50:08 437.345
AAUSAT CUBESAT 2 24 Mar 19:55:06 19:58:56 41° 74° (ENE) 20:02:48 437.432
YUBILEINY 24 Mar 20:01:08 20:09:37 60° 269° (W) 20:18:06 435.215
SEEDS 24 Mar 20:03:50 20:07:58 65° 260° (W) 20:12:06 437.485
CUTE 1.7 + AOD 2 24 Mar 20:06:49 20:10:44 37° 262° (W) 20:14:38 437.475
AO-73 24 Mar 20:12:55 20:16:54 31° 72° (ENE) 20:20:50 145.935
HO-68 24 Mar 20:15:26 20:22:12 45° 260° (W) 20:29:00 435.675
AO-85 24 Mar 20:18:50 20:22:09 20° 111° (ESE) 20:25:19 145.980
ISS 24 Mar 20:22:58 20:25:41 25° 130° (SE) 20:28:26 437.550
Tancredo 1 24 Mar 20:32:31 20:35:27 37° 132° (SE) 20:38:25 437.200
UWE-3 24 Mar 20:32:49 20:37:29 78° 258° (WSW) 20:42:09 435.000/436.395/437.385
M-CUBED/EXP-1 PRIME 24 Mar 20:38:17 20:39:40 11° 300° (WNW) 20:41:05 437.505
CUBEBUG 2 24 Mar 21:03:04 21:06:46 22° 265° (W) 21:10:30 437.445
PCSat 24 Mar 21:12:34 21:16:00 17° 256° (WSW) 21:19:25 145.827
PRISM 24 Mar 21:12:53 21:14:16 11° 93° (E) 21:15:40 437.425
Oscar 11 24 Mar 21:15:31 21:19:45 55° 260° (W) 21:24:00 .
STRAND 1 24 Mar 21:15:33 21:19:18 21° 293° (WNW) 21:23:02 437.568
ZACube-1 24 Mar 21:18:58 21:23:15 39° 262° (W) 21:27:31 437.345
AAUSAT CUBESAT 2 24 Mar 21:33:02 21:34:33 12° 267° (W) 21:36:04 437.432
DELFI C3 24 Mar 21:33:26 21:37:18 63° 76° (ENE) 21:41:11 145.870
AO-73 24 Mar 21:49:43 21:53:05 20° 265° (W) 21:56:25 145.935
FO-29 24 Mar 21:51:57 21:52:03 10° 88° (E) 21:52:08 435.910
RS-15 24 Mar 21:54:13 22:06:14 56° 54° (NE) 22:17:38 29.354- 29.394
AO-85 24 Mar 21:58:19 22:02:21 32° 303° (WNW) 22:06:09 145.980
ISS 24 Mar 21:59:23 22:02:06 24° 325° (NW) 22:04:50 437.550
Tancredo 1 24 Mar 22:09:28 22:11:42 17° 327° (NNW) 22:13:57 437.200
LO-87 24 Mar 22:13:04 22:15:27 17° 70° (ENE) 22:17:49 145.935 - 145.965
BEESAT 3 24 Mar 22:17:56 22:21:25 33° 113° (ESE) 22:24:58 437.485
BEESAT 2 24 Mar 22:30:05 22:32:32 16° 109° (ESE) 22:35:01 435.950
PRISM 24 Mar 22:45:45 22:49:43 44° 286° (WNW) 22:53:41 437.425
TIGRISAT 24 Mar 22:47:01 22:51:26 75° 101° (ESE) 22:55:44 435.000
UNISAT 6 24 Mar 22:56:34 23:00:59 77° 284° (WNW) 23:05:17 437.425
VELOX 1 24 Mar 23:03:23 23:04:51 11° 65° (ENE) 23:06:18 145.980
AIST 2D 24 Mar 23:05:21 23:06:34 11° 93° (E) 23:07:47 435.315
SO-50 24 Mar 23:12:56 23:14:37 12° 47° (NE) 23:16:18 436.795
ESTCUBE 1 24 Mar 23:15:14 23:19:37 58° 75° (ENE) 23:24:02 437.505/2401.250
FO-29 24 Mar 23:31:59 23:37:58 76° 285° (WNW) 23:43:19 435.910
LO-87 24 Mar 23:45:53 23:48:42 22° 264° (W) 23:51:32 145.935 - 145.965
NANOSAT C BR1 24 Mar 23:48:39 23:52:03 24° 96° (E) 23:55:26 145.865
EO-79 24 Mar 23:51:42 23:55:23 28° 97° (E) 23:59:02 145.935-145.965
BEESAT 3 24 Mar 23:56:27 23:59:05 17° 308° (NW) 00:01:44 437.485
SPROUT 24 Mar 23:59:46 00:03:50 44° 74° (ENE) 00:07:56 437.525
BEESAT 2 25 Mar 00:06:27 00:10:00 32° 304° (NW) 00:13:37 435.950
RS-15 25 Mar 00:07:27 00:18:11 39° 254° (WSW) 00:28:29 29.354- 29.394
POLYITAN 1 25 Mar 00:18:48 00:23:01 64° 101° (E) 00:27:10 437.675
DX 1 25 Mar 00:20:22 00:24:19 35° 72° (ENE) 00:28:17 434.975-435.025
QB50P2 25 Mar 00:23:17 00:27:32 80° 101° (E) 00:31:45 145.880/145.840
VELOX 1 25 Mar 00:36:29 00:40:46 54° 260° (W) 00:45:06 145.980
AIST 2D 25 Mar 00:36:48 00:39:50 28° 286° (WNW) 00:42:51 435.315
DUCHIFAT 1 25 Mar 00:38:33 00:42:46 88° 292° (WNW) 00:46:57 145.980
SO-50 25 Mar 00:51:04 00:55:33 71° 243° (WSW) 01:00:00 436.795
50 SAT 25 Mar 00:51:27 00:54:46 45° 260° (W) 00:58:06 437.505
BUGSAT 1 25 Mar 01:02:41 01:06:46 52° 100° (E) 01:10:47 437.445
UKube-1 25 Mar 01:04:01 01:08:18 84° 79° (ENE) 01:12:38 .
NANOSAT C BR1 25 Mar 01:24:21 01:27:37 22° 290° (WNW) 01:30:52 145.865
EO-79 25 Mar 01:27:56 01:30:55 19° 291° (WNW) 01:33:52 145.935-145.965
SPROUT 25 Mar 01:38:10 01:39:55 12° 267° (W) 01:41:41 437.525
DX 1 25 Mar 01:57:56 02:00:34 16° 265° (W) 02:03:13 434.975-435.025
BEESAT 25 Mar 02:02:20 02:06:09 24° 69° (ENE) 02:09:57 436.000
Gurwin Techsat 1B 25 Mar 02:14:33 02:19:40 46° 100° (E) 02:24:45 435.225
Oscar 19 25 Mar 02:15:10 02:20:22 88° 105° (ESE) 02:25:33 437.125/150
ITUPSAT 1 25 Mar 02:16:43 02:21:01 33° 71° (ENE) 02:25:18 437.325
MOZHAYETS 4 25 Mar 02:36:18 02:39:39 20° 69° (ENE) 02:43:01
BUGSAT 1 25 Mar 02:40:49 02:41:36 10° 294° (WNW) 02:42:22 437.445
Tancredo 1 25 Mar 03:03:31 03:04:26 11° 28° (NNE) 03:05:18 437.200
O/OREOS (USA 219) 25 Mar 03:34:55 03:39:33 90° 75° (ENE) 03:44:08 437.305
BEESAT 25 Mar 03:39:37 03:43:44 29° 263° (W) 03:47:53 436.000
ITUPSAT 1 25 Mar 03:55:18 03:58:51 20° 265° (W) 04:02:24 437.325
Gurwin Techsat 1B 25 Mar 03:55:36 03:59:12 19° 294° (WNW) 04:02:47 435.225
ITAMSAT 1 25 Mar 03:58:06 04:03:18 76° 102° (ESE) 04:08:28 435.822/435.867
AO-7 25 Mar 04:03:44 04:11:54 59° 104° (ESE) 04:20:02 .
KKS-1 25 Mar 04:06:26 04:10:38 42° 73° (ENE) 04:14:51 437.445
MOZHAYETS 4 25 Mar 04:12:29 04:16:35 31° 263° (W) 04:20:40
ISS 25 Mar 04:29:31 04:32:47 59° 41° (NE) 04:36:03 437.550
Tancredo 1 25 Mar 04:37:46 04:40:59 88° 47° (NE) 04:44:11 437.200
STARS 25 Mar 04:47:29 04:51:46 52° 74° (ENE) 04:56:05 437.465
CUBESAT XI-V 25 Mar 04:59:19 05:03:52 67° 259° (W) 05:08:27 437.345
ITAMSAT 1 25 Mar 05:40:33 05:42:03 11° 298° (WNW) 05:43:33 435.822/435.867
M-CUBED/EXP-1 PRIME 25 Mar 05:44:01 05:47:21 39° 68° (ENE) 05:50:57 437.505
KKS-1 25 Mar 05:45:00 05:47:20 14° 266° (W) 05:49:40 437.445
DOVE 4 25 Mar 05:48:46 05:52:56 23° 94° (E) 05:57:02 437.250
LilacSat-2 25 Mar 05:57:08 05:59:21 15° 94° (E) 06:01:34 437.200
AO-7 25 Mar 05:57:28 06:04:05 28° 300° (WNW) 06:10:43 .
XW-2F 25 Mar 05:59:00 06:01:04 14° 94° (E) 06:03:09 145.980 - 146.000
XW-2D 25 Mar 06:22:42 06:26:05 32° 98° (E) 06:29:28 145.860 - 145.880
STARS 25 Mar 06:27:13 06:28:22 11° 268° (W) 06:29:30 437.465
NUDT-PHONESAT 25 Mar 06:28:28 06:31:42 29° 97° (E) 06:34:55 437.300
XW-2B 25 Mar 06:28:30 06:32:00 37° 98° (E) 06:35:29 145.730 - 145.750
AO-85 25 Mar 06:32:28 06:36:24 64° 61° (ENE) 06:40:28 145.980
KAITUO 1B 25 Mar 06:33:27 06:36:51 34° 98° (E) 06:40:13 145.475/437.950
XW-2C 25 Mar 06:38:28 06:42:08 53° 100° (E) 06:45:48 145.795 - 145.815
STRAND 1 25 Mar 06:47:40 06:52:22 37° 71° (ENE) 06:57:04 437.568
YUBILEINY 25 Mar 07:01:29 07:08:58 33° 86° (E) 07:16:24 435.215
XW-2A 25 Mar 07:08:07 07:09:30 12° 94° (E) 07:10:52 145.665 - 145.685
CUTE-I 25 Mar 07:14:52 07:20:14 77° 285° (WNW) 07:25:32 437.470
NO-84 25 Mar 07:25:38 07:28:20 37° 315° (NW) 07:31:01 435.350 FM
DOVE 4 25 Mar 07:25:47 07:30:36 36° 288° (WNW) 07:35:20 437.250
LilacSat-2 25 Mar 07:30:27 07:33:38 26° 287° (WNW) 07:36:48 437.200
XW-2F 25 Mar 07:32:02 07:35:13 27° 287° (WNW) 07:38:23 145.980 - 146.000
HO-68 25 Mar 07:47:03 07:53:51 44° 100° (E) 08:00:37 435.675
SEEDS 25 Mar 07:51:47 07:55:19 26° 96° (E) 07:58:50 437.485
CUTE 1.7 + AOD 2 25 Mar 07:55:06 07:59:11 46° 100° (E) 08:03:15 437.475
XW-2D 25 Mar 07:58:15 07:59:57 13° 291° (WNW) 08:01:37 145.860 - 145.880
NUDT-PHONESAT 25 Mar 08:03:28 08:05:19 14° 291° (WNW) 08:07:11 437.300
XW-2B 25 Mar 08:04:42 08:05:49 11° 292° (WNW) 08:06:55 145.730 - 145.750
KAITUO 1B 25 Mar 08:09:09 08:10:30 12° 292° (WNW) 08:11:51 145.475/437.950
BEESAT 3 25 Mar 08:15:10 08:19:11 81° 61° (ENE) 08:23:09 437.485
PCSat 25 Mar 08:26:51 08:27:53 11° 102° (ESE) 08:28:56 145.827
UWE-3 25 Mar 08:27:08 08:30:46 27° 96° (E) 08:34:18 435.000/436.395/437.385
BEESAT 2 25 Mar 08:27:18 08:31:07 39° 57° (ENE) 08:34:55 435.950
STRAND 1 25 Mar 08:27:43 08:31:34 21° 265° (W) 08:35:28 437.568
XW-2A 25 Mar 08:39:26 08:42:17 25° 287° (WNW) 08:45:05 145.665 - 145.685
JUGNU 25 Mar 08:50:24 08:54:17 18° 172° (S) 08:58:12 437.505
CUBEBUG 2 25 Mar 08:56:56 09:01:20 73° 284° (WNW) 09:05:33 437.445
YUBILEINY 25 Mar 08:57:07 09:05:23 46° 282° (WNW) 09:13:41 435.215
Oscar 11 25 Mar 09:06:40 09:10:35 34° 98° (E) 09:14:29 .
ZACube-1 25 Mar 09:11:05 09:15:12 51° 99° (E) 09:19:14 437.345
AAUSAT CUBESAT 2 25 Mar 09:15:56 09:20:01 58° 284° (WNW) 09:24:05 437.432
DELFI C3 25 Mar 09:16:51 09:17:46 11° 92° (E) 09:18:43 145.870
SEEDS 25 Mar 09:27:44 09:30:48 20° 290° (WNW) 09:33:52 437.485
PRISM 25 Mar 09:30:39 09:34:40 72° 77° (ENE) 09:38:44 437.425
CUTE 1.7 + AOD 2 25 Mar 09:33:00 09:34:33 12° 293° (WNW) 09:36:08 437.475
HO-68 25 Mar 09:35:14 09:41:16 31° 295° (WNW) 09:47:18 435.675
FO-29 25 Mar 09:37:41 09:44:38 36° 68° (ENE) 09:51:19 435.910
AO-73 25 Mar 09:40:22 09:44:34 75° 284° (WNW) 09:48:41 145.935
TIGRISAT 25 Mar 09:41:14 09:45:37 41° 73° (ENE) 09:50:01 435.000
UNISAT 6 25 Mar 09:50:42 09:55:18 57° 75° (ENE) 09:59:53 437.425
UWE-3 25 Mar 10:03:53 10:07:01 20° 291° (WNW) 10:10:05 435.000/436.395/437.385
PCSat 25 Mar 10:05:08 10:10:31 77° 296° (WNW) 10:15:58 145.827
BEESAT 2 25 Mar 10:06:29 10:08:30 14° 252° (WSW) 10:10:32 435.950
JUGNU 25 Mar 10:38:23 10:42:39 20° 182° (S) 10:46:56 437.505
NANOSAT C BR1 25 Mar 10:38:48 10:40:13 11° 66° (ENE) 10:41:38 145.865
EO-79 25 Mar 10:41:34 10:43:46 14° 67° (ENE) 10:45:59 145.935-145.965
Oscar 11 25 Mar 10:43:41 10:46:25 17° 291° (WNW) 10:49:07 .
DELFI C3 25 Mar 10:48:57 10:52:43 42° 286° (WNW) 10:56:30 145.870
ZACube-1 25 Mar 10:50:01 10:50:58 11° 294° (WNW) 10:51:54 437.345
SRMSAT 25 Mar 10:50:50 10:54:24 16° 169° (S) 10:57:58 437.500
AIST 2D 25 Mar 11:06:44 11:10:08 46° 76° (ENE) 11:13:32 435.315
POLYITAN 1 25 Mar 11:07:34 11:11:14 28° 72° (ENE) 11:14:56 437.675
QB50P2 25 Mar 11:11:53 11:15:46 34° 73° (ENE) 11:19:40 145.880/145.840
ESTCUBE 1 25 Mar 11:12:39 11:15:32 17° 94° (E) 11:18:26 437.505/2401.250
LO-87 25 Mar 11:16:00 11:19:22 34° 98° (E) 11:22:43 145.935 - 145.965
TIGRISAT 25 Mar 11:19:30 11:22:24 16° 266° (W) 11:25:19 435.000
FO-29 25 Mar 11:22:01 11:29:23 43° 262° (W) 11:36:32 435.910
DUCHIFAT 1 25 Mar 11:26:13 11:30:09 38° 73° (ENE) 11:34:07 145.980
UNISAT 6 25 Mar 11:30:45 11:32:15 11° 268° (W) 11:33:46 437.425
BUGSAT 1 25 Mar 11:48:51 11:52:07 22° 70° (ENE) 11:55:24 437.445
PCSat 25 Mar 11:54:05 11:54:47 10° 314° (NW) 11:55:30 145.827
NANOSAT C BR1 25 Mar 12:11:18 12:15:26 50° 260° (W) 12:19:36 145.865
RS-15 25 Mar 12:11:25 12:22:38 52° 109° (ESE) 12:34:15 29.354- 29.394
EO-79 25 Mar 12:15:06 12:19:08 41° 261° (W) 12:23:11 145.935-145.965
50 SAT 25 Mar 12:20:37 12:22:31 14° 95° (E) 12:24:24 437.505
JUGNU 25 Mar 12:27:41 12:30:59 15° 192° (SSW) 12:34:18 437.505
VELOX 1 25 Mar 12:30:20 12:34:28 37° 99° (E) 12:38:35 145.980
SRMSAT 25 Mar 12:38:32 12:42:54 21° 179° (S) 12:47:16 437.500
POLYITAN 1 25 Mar 12:43:54 12:46:59 19° 265° (W) 12:50:06 437.675
ESTCUBE 1 25 Mar 12:48:17 12:52:25 36° 288° (WNW) 12:56:32 437.505/2401.250
QB50P2 25 Mar 12:49:01 12:51:36 16° 266° (W) 12:54:12 145.880/145.840
LO-87 25 Mar 12:51:15 12:52:26 11° 292° (WNW) 12:53:38 145.935 - 145.965
UKube-1 25 Mar 12:55:50 12:58:52 18° 95° (E) 13:01:53 .
DUCHIFAT 1 25 Mar 13:03:43 13:05:57 14° 267° (W) 13:08:10 145.980
BUGSAT 1 25 Mar 13:23:52 13:27:18 24° 264° (W) 13:30:47 437.445
SPROUT 25 Mar 13:24:53 13:29:04 53° 285° (WNW) 13:33:13 437.525
Oscar 19 25 Mar 13:28:01 13:33:07 86° 76° (ENE) 13:38:16 437.125/150
Gurwin Techsat 1B 25 Mar 13:31:40 13:36:47 51° 73° (ENE) 13:41:56 435.225
DX 1 25 Mar 13:47:51 13:52:14 68° 284° (WNW) 13:56:34 434.975-435.025
50 SAT 25 Mar 13:52:38 13:55:32 25° 288° (WNW) 13:58:25 437.505
NO-84 25 Mar 14:02:26 14:04:38 16° 40° (NE) 14:06:56 435.350 FM
VELOX 1 25 Mar 14:07:44 14:10:35 17° 292° (WNW) 14:13:25 145.980
ITUPSAT 1 25 Mar 14:23:22 14:24:46 11° 92° (E) 14:26:10 437.325
RS-15 25 Mar 14:23:54 14:35:13 46° 310° (NW) 14:46:57 29.354- 29.394
SRMSAT 25 Mar 14:27:33 14:31:25 18° 189° (S) 14:35:18 437.500
UKube-1 25 Mar 14:31:05 14:34:53 30° 289° (WNW) 14:38:40 .
AO-7 25 Mar 14:58:10 15:06:15 58° 68° (ENE) 15:14:21 .
SO-50 25 Mar 15:01:03 15:05:44 87° 299° (WNW) 15:10:22 436.795
ITAMSAT 1 25 Mar 15:11:58 15:17:11 78° 76° (ENE) 15:22:25 435.822/435.867
Gurwin Techsat 1B 25 Mar 15:13:45 15:16:57 16° 267° (W) 15:20:11 435.225
NO-84 25 Mar 15:39:04 15:42:16 38° 232° (SW) 15:45:44 435.350 FM
BEESAT 25 Mar 15:42:45 15:47:31 85° 284° (WNW) 15:52:15 436.000
ITUPSAT 1 25 Mar 15:58:13 16:02:53 58° 286° (WNW) 16:07:32 437.325
KKS-1 25 Mar 16:03:46 16:04:53 11° 92° (E) 16:06:01 437.445
O/OREOS (USA 219) 25 Mar 16:05:48 16:08:37 16° 100° (E) 16:11:27 437.305
MOZHAYETS 4 25 Mar 16:10:40 16:15:13 80° 101° (ESE) 16:19:46
STARS 25 Mar 16:42:31 16:44:32 13° 93° (E) 16:46:32 437.465
RS-15 25 Mar 16:45:44 16:52:15 15° 340° (NNW) 16:58:49 29.354- 29.394
DOVE 4 25 Mar 16:51:41 16:54:00 14° 65° (ENE) 16:56:23 437.250
AO-7 25 Mar 16:52:35 16:59:17 27° 263° (W) 17:06:01 .
CUTE-I 25 Mar 16:56:13 16:58:36 13° 63° (ENE) 17:00:58 437.470
CUBESAT XI-V 25 Mar 16:59:41 17:04:04 40° 99° (E) 17:08:27 437.345
XW-2B 25 Mar 17:08:09 17:09:22 11° 68° (ENE) 17:10:36 145.730 - 145.750
XW-2C 25 Mar 17:17:08 17:19:24 15° 70° (ENE) 17:21:40 145.795 - 145.815
YUBILEINY 25 Mar 17:19:25 17:21:55 11° 64° (ENE) 17:24:26 435.215
KKS-1 25 Mar 17:37:20 17:41:43 54° 286° (WNW) 17:46:03 437.445
O/OREOS (USA 219) 25 Mar 17:43:31 17:47:40 36° 294° (WNW) 17:51:52 437.305
LilacSat-2 25 Mar 18:07:29 18:11:20 78° 76° (ENE) 18:15:09 437.200
XW-2F 25 Mar 18:08:12 18:11:59 72° 76° (ENE) 18:15:46 145.980 - 146.000
HO-68 25 Mar 18:12:52 18:18:06 23° 62° (ENE) 18:23:20 435.675
STARS 25 Mar 18:16:50 18:21:03 44° 287° (WNW) 18:25:13 437.465
